Regional Weather Roundup
Issued by NWS Northern Indiana

Home | Current Version | Previous Version | Graphics & Text | Print | Product List | Glossary On
Versions: 1 2 3 4 5 6 7 8 9 10 11 12 13 14 15 16 17 18 19 20 21 22 23 24 25 26 27 28 29 30 31 32 33 34 35 36 37 38 39 40 41 42 43 44 45 46 47 48 49 50
133
ASUS43 KIWX 291000
RWRIWX

KIWX WEATHER ROUNDUP
NATIONAL WEATHER SERVICE NORTHERN INDIANA
600 AM EDT SUN MAY 29 2016

NOTE: "FAIR" INDICATES FEW OR NO CLOUDS BELOW 12,000 FEET WITH NO
SIGNIFICANT WEATHER AND/OR OBSTRUCTIONS TO VISIBILITY.

* THESE STATIONS ARE NOT UNDER NWS QUALITY CONTROL. THEY ALSO MAY NOT
  REPORT WEATHER SUCH AS PRECIPITATION OR FOG.

INZ001>027-291100-
NORTHERN INDIANA

CITY           SKY/WX    TMP DP  RH WIND       PRES   REMARKS
GARY*          PTCLDY    68  64  88 S7        29.98R
SOUTH BEND     CLOUDY    64  61  90 S6        30.00R
GOSHEN         PTCLDY    68  63  84 S8        30.00S
ANGOLA*          N/A     66  59  77 S6        30.02F
FORT WAYNE     CLOUDY    68  65  90 S9        30.04S
PERU/GRISSOM   CLEAR     67  67  99 S8        30.02S

$$
INZ028>050-291100-
CENTRAL INDIANA

CITY           SKY/WX    TMP DP  RH WIND       PRES   REMARKS
LAFAYETTE      PTCLDY    61  59  93 CALM      30.02S
KOKOMO*        PTCLDY    68  63  83 S10       30.04S
MUNCIE*        CLOUDY    70  64  81 S7        30.06F
INDIANAPOLIS   MOCLDY    68  65  90 S10       30.05S

$$
MIZ043>046-050>051-056>058-064>065-071>073-077>080-291100-
SOUTHWEST LOWER MICHIGAN

CITY           SKY/WX    TMP DP  RH WIND       PRES   REMARKS
BATTLE CREEK   CLOUDY    68  64  87 S10       29.99S
BENTON HARBOR  PTCLDY    66  60  81 S5        29.98R
COLDWATER*     CLOUDY    68  65  89 S3        30.01F
HILLSDALE*     CLOUDY    67  64  91 S6        30.04S FOG
HOLLAND        PTCLDY    68  61  78 S10       29.97R
GRAND RAPIDS   MOCLDY    68  63  84 S9        29.97R
KALAMAZOO      PTCLDY    67  63  87 S7        30.00R
STURGIS*       CLOUDY    66  64  91 S7        30.00R
THREE RIVERS*  FAIR      69  64  84 S9        30.00R

$$
OHZ001>008-015>018-024>025-291100-
NORTHWEST OHIO

CITY           SKY/WX    TMP DP  RH WIND       PRES   REMARKS
DEFIANCE       PTCLDY    70  64  81 S8        30.05R
FINDLAY        PTCLDY    70  62  76 SW9       30.06S
TOLEDO EXPRESS PTCLDY    69  63  81 S6        30.04F
TOLEDO METCALF CLOUDY    68  62  81 S7        30.06S
LIMA           MOCLDY    69  64  84 S9        30.08S

$$
AND FOR LAKE MICHIGAN COASTAL AND OPEN LAKE BUOY OBSERVATIONS

STATION/POSITION TEMP    WIND        PRES    VSBY  WAVE
                 AIR SEA DIR/SP/G                  HT/PER
                 (F)     (DEG/KT/KT) (MB)    (MI)  (FT/S)
CALUMET HARBOR    66     200/  9/ 12 1013.9F
MICHIGAN CITY     67     190/  5/  6   N/A
BURNS HARBOR      68     200/ 11/ 17 1015.2R
SAINT JOSEPH      68     150/  4/  8 1015.6R
SOUTH LAKE BUOY   56 50  180/ 12/ 14 1013.2          1/ 4
4 MI NW BRIDGMAN  64 61  170/  6/  8   N/A           1/ 3
MICHIGAN CITY     62 56  200/  6/  8   N/A           1

$$
&&




USA.gov is the U.S. government's official web portal to all federal, state and local government web resources and services.